Starlink 31342

operational
NORAD ID: 59166 Int'l Des: 2024-044 Owner: SPXS Country: US Constellation: starlink
LEOCIRCULAR

About Starlink 31342

Description loading...

Live Position

Loading 3D Globe...

Upcoming Passes

Altitude History

Altitude vs Time

uPlot chart will show altitude changes over time

Two-Line Element Set

1 59166U 24044Q 25257.39001800 -.00003866 00000-0 -13103-3 0 9999
2 59166 43.0037 22.6047 0001184 272.8451 87.2265 15.27580901 86631
Epoch: Sep 14, 2025 • Age: 26 hours

Current Status

Altitude 485.9 km
Velocity 7.63 km/s
Sub-Earth Point 37.98°N, 19.04°W
Launch Date Mar 4, 2024
Age 1.5 years
Type internet

Technical Details

Classification Payload
Mass 730.00 kg
Dry Mass 700.00 kg
Total Mass 730.00 kg
Length 0.30 m
Diameter 4.10 m
Span 29.00 m
Shape Box + pan
Manufacturer SPXS
Bus Type Starlink V2M
Phase Status In Orbit
Owner/State SPXS/US

Large Constellations

Loading constellations...